Вернуться в каталог

COSMOS 1823 DEB

АктивенLEO
NORAD 29357·DEBRIS·🇷🇺 Russia

Запущен Feb 20, 1987 с Plesetsk Cosmodrome

Loading…

Ближайшие Пролёты (ближайшие 24 часа)

TLE

СвежийSource: Space-Track

Эпоха: Sep 14, 2026, 22:24 UTC

1 29357U 87020DY  26257.93346447  .00000031  00000-0  18331-3 0  9998
2 29357  73.7949 341.9182 0220587   7.6899 109.7083 12.85532608613792

Отслеживайте COSMOS 1823 DEB в реальном времени с AllMySat

Download on the App Store